User: anonymous   Login
Location: Caltech
(34.1382°N, 118.1253°W)
Time: 20:47:29
(UTC-07:00)
Language:

ASTRO E2 - Orbit

View from above orbital plane
View from above orbital plane
View from above satellite
View from above satellite

Ground track
Ground track

The orbit data is extracted from the following two-line orbital elements,

1 28773U 05025A   17230.22131592  .00000945  00000-0  43652-4 0  9999
2 28773  31.3821 254.1215 0004793 249.7983 110.2148 15.15918193666774
Epoch (UTC): 18 August 2017 05:18:41
Eccentricity: 0.0004793
inclination: 31.3821°
perigee height: 515 km
apogee height: 521 km
right ascension of ascending node: 254.1215°
argument of perigee: 249.7983°
revolutions per day: 15.15918193
mean anomaly at epoch: 110.2148°
orbit number at epoch: 66677

The dashed part of the orbit path shows where the satellite is in the earth's shadow,  

DLR